Theta_e
306 298 295 298 300 302 302 302 313 318 325 320 320 322 326 329 330 328 325 321 326 330 333 336 339 341 341 341 337 338 344 345 346 344 342 343 341 345 345 347 351 352 349 344
299 295 301 305 304 303 302 305 315 319 322 322 318 321 325 328 326 329 325 322 324 327 330 334 338 339 338 339 337 340 344 343 344 345 345 346 344 345 346 346 346 351 348 344
296 301 306 305 303 300 299 298 313 314 316 317 317 315 320 327 329 328 329 326 325 326 326 332 336 337 337 339 342 340 344 340 342 347 346 344 341 341 343 345 346 350 351 351
299 305 305 302 301 300 292 304 316 317 312 307 316 302 311 318 323 326 328 329 326 326 327 333 335 336 337 340 345 343 344 343 346 345 342 341 338 335 340 342 347 348 352 351
298 300 301 300 301 302 299 307 316 316 309 311 310 303 309 315 318 323 328 329 329 329 328 329 334 337 339 342 345 344 344 342 346 346 343 339 334 337 342 345 345 347 346 351
300 306 303 302 305 305 307 313 313 313 305 298 306 308 309 312 318 323 327 329 332 331 331 330 333 338 339 342 346 345 343 340 342 347 344 340 339 340 341 341 344 346 347 348
301 301 304 305 299 302 303 297 292 296 295 295 308 307 308 318 324 325 326 328 330 335 333 333 332 336 338 340 344 347 343 340 341 345 345 344 343 341 343 342 344 344 345 347
293 293 299 304 301 298 298 298 292 290 291 294 309 303 306 322 328 329 331 333 333 333 334 335 335 335 337 340 343 348 344 341 344 345 346 345 346 345 344 343 342 344 346 347
293 293 304 306 305 303 297 296 300 295 295 296 303 307 315 320 322 328 328 327 329 333 335 335 336 337 336 339 343 344 346 346 345 347 346 346 347 346 343 344 346 343 346 350
299 293 298 305 305 306 302 304 295 293 290 292 299 301 303 310 318 324 324 325 329 333 338 339 339 340 341 342 342 344 346 344 344 348 347 350 348 346 346 347 347 349 348 351
298 294 296 300 297 299 300 297 298 296 294 296 295 301 318 317 322 322 323 325 327 329 333 335 337 340 340 341 341 341 341 342 343 344 343 344 349 349 347 349 349 347 347 347
298 293 290 295 301 306 302 299 296 293 294 298 297 304 321 321 322 321 323 324 326 327 330 333 335 337 338 339 341 341 341 341 342 343 344 345 348 347 349 350 350 349 346 346
296 292 289 293 294 298 295 297 295 295 298 295 295 303 321 320 320 322 321 322 324 325 324 326 328 330 333 336 340 340 341 341 342 342 342 342 343 348 348 349 350 350 345 345
306 291 293 289 291 294 293 297 298 294 295 295 298 308 314 316 316 319 319 321 322 321 321 322 323 325 327 329 332 334 338 342 342 342 340 339 342 342 342 344 348 349 350 347
298 290 292 296 298 298 295 296 299 299 299 296 306 308 310 314 316 318 320 320 319 320 320 318 319 321 322 323 327 331 334 335 339 339 339 339 340 342 338 340 342 345 349 350
295 295 292 295 298 299 295 297 302 306 306 308 309 309 315 318 318 317 318 319 319 320 321 322 321 321 321 322 324 327 329 330 332 334 335 338 337 337 338 339 340 341 341 347
294 291 293 290 296 294 289 294 295 302 308 311 305 312 317 315 317 317 317 316 314 314 314 315 317 319 322 323 324 324 327 328 328 328 330 332 332 332 332 333 334 335 336 339
293 292 290 289 293 284 292 298 302 309 311 313 313 315 316 315 317 315 315 312 312 312 312 311 312 313 314 316 322 324 325 325 326 327 329 331 332 331 331 331 331 331 334 336
295 290 288 286 286 294 298 298 296 300 305 315 313 314 314 311 310 309 312 311 308 307 308 310 311 310 311 313 316 317 316 316 316 317 320 324 326 326 330 329 330 331 331 332
293 292 289 286 284 285 296 302 303 307 300 315 316 311 309 309 301 304 310 309 308 308 309 309 310 310 310 310 314 313 312 312 312 313 316 317 319 320 322 323 325 329 330 332
286 288 287 287 286 291 299 302 305 291 294 310 310 309 308 305 306 306 308 307 308 308 309 310 310 308 307 309 310 308 308 308 311 313 314 315 314 316 317 318 320 323 322 322
289 285 285 287 284 283 304 303 298 300 302 310 309 307 306 308 307 306 306 305 306 306 308 308 306 305 306 306 307 304 304 307 308 309 309 310 313 314 316 314 315 315 315 317
290 293 291 293 292 300 302 302 304 304 304 304 306 308 308 307 305 305 304 304 304 304 304 305 304 303 304 305 305 302 302 305 304 304 304 306 307 308 310 310 311 313 314 314
296 297 294 295 299 300 302 303 305 305 303 304 307 306 307 303 304 302 302 302 302 303 303 303 302 301 301 302 302 302 303 303 302 301 301 303 303 303 304 308 309 309 308 308
296 296 293 293 298 301 304 302 303 303 304 303 304 305 304 304 302 302 301 300 301 301 301 301 301 300 300 300 300 301 301 302 301 300 300 300 300 300 302 305 305 307 307 303
297 294 291 289 297 297 300 302 304 302 302 302 303 302 304 304 302 302 301 301 301 301 300 300 300 300 299 299 300 300 301 300 298 298 299 299 298 299 300 300 302 304 303 302
Wind_Speed
4 4 5 6 6 6 5 4 8 5 2 8 9 7 13 6 7 10 10 6 14 18 14 16 18 17 12 10 11 8 9 7 5 2 4 3 3 1 2 2 5 6 4 3
6 4 7 4 6 7 4 1 7 13 10 5 5 7 8 2 5 12 9 6 11 13 13 17 19 16 13 12 10 8 10 8 5 4 2 3 3 1 2 2 2 5 5 4
6 7 7 6 8 8 7 5 8 12 11 4 12 3 2 9 5 7 4 6 10 15 14 14 18 17 13 13 12 10 9 9 6 7 4 3 3 3 2 0 1 3 5 5
7 7 6 6 8 6 7 8 11 24 11 6 2 4 4 6 11 9 6 5 11 14 15 17 16 15 15 12 11 11 10 9 7 7 4 5 4 3 3 2 1 3 4 6
9 4 7 8 13 8 12 8 13 21 5 10 6 6 3 6 12 16 6 7 6 9 13 16 17 17 15 13 13 13 10 9 7 8 6 4 3 3 2 2 3 3 4 6
8 7 7 10 11 12 12 4 7 6 4 1 10 6 5 9 18 15 9 6 7 7 8 11 15 16 14 11 11 12 11 8 8 7 8 7 7 5 2 2 3 4 2 2
7 9 10 6 6 3 5 8 2 1 2 7 15 4 7 14 22 22 15 13 6 5 2 6 15 15 14 14 12 11 11 8 8 7 7 7 7 7 7 5 4 4 3 2
2 9 6 5 9 8 5 9 7 6 4 2 12 4 5 4 5 4 2 5 4 6 3 1 7 16 18 16 14 14 12 10 8 8 8 7 7 5 4 5 4 4 4 4
3 7 6 1 6 9 3 2 7 6 3 5 3 2 7 8 5 7 3 2 3 4 6 7 6 5 12 15 16 16 14 12 10 9 8 7 6 6 5 6 5 4 5 5
6 4 4 8 3 3 9 4 4 4 5 2 3 5 3 5 6 10 7 7 6 6 1 7 6 8 7 8 5 5 4 5 2 4 7 8 8 7 6 5 6 6 6 5
4 4 9 2 3 7 4 4 5 5 5 7 4 2 4 11 11 10 8 6 7 8 8 5 7 9 11 12 12 9 6 6 7 4 2 4 7 7 6 6 6 6 5 6
4 4 1 5 9 5 6 6 6 6 2 4 5 2 10 15 14 10 7 6 7 9 8 6 9 5 7 9 8 7 5 6 7 5 5 5 5 5 6 6 6 6 7 6
4 4 4 9 9 8 4 2 6 5 2 5 7 6 7 12 15 12 6 5 5 9 9 8 9 8 7 8 7 8 5 3 4 5 7 7 5 4 6 6 6 6 6 7
3 4 5 3 4 1 6 7 4 6 4 5 3 15 12 12 11 15 11 8 9 10 7 8 8 8 8 8 7 6 2 3 4 3 2 6 8 7 5 4 4 4 7 7
3 3 4 4 6 5 3 8 4 3 6 7 17 17 18 14 13 12 11 11 9 10 11 9 9 8 9 6 5 5 3 2 3 5 3 5 3 5 5 8 8 5 4 6
4 2 5 6 12 11 6 14 9 8 8 15 16 15 16 16 16 13 13 12 11 10 10 9 9 9 9 8 7 6 6 5 5 5 5 5 5 8 7 9 9 8 6 6
4 4 3 2 10 8 8 8 7 4 6 23 17 15 21 19 17 16 15 13 14 12 12 11 8 7 7 8 6 8 7 7 8 8 9 9 8 6 7 8 7 7 6 4
3 3 3 1 7 4 7 8 7 10 5 14 22 23 21 20 17 18 14 16 13 11 9 8 7 8 8 6 6 7 8 9 9 9 9 6 5 6 6 3 2 5 4 6
5 4 4 4 3 4 8 8 6 2 6 18 24 18 16 18 19 12 14 14 11 8 6 6 7 7 9 10 8 9 10 9 10 10 9 7 6 5 2 4 5 4 6 5
6 6 6 2 3 5 7 4 7 5 5 5 21 21 27 21 13 8 14 13 11 10 8 8 8 10 11 8 10 11 9 10 9 7 7 7 7 7 6 6 6 4 3 4
4 4 4 1 1 3 4 8 5 6 6 3 14 21 20 12 7 12 15 10 11 11 12 12 12 10 7 7 10 11 9 10 6 8 7 7 6 6 5 5 3 4 5 6
2 2 0 2 1 3 7 4 7 5 2 8 5 5 11 15 17 15 13 9 11 13 13 12 12 9 6 7 10 8 9 6 6 7 8 9 9 8 8 7 6 7 6 5
3 4 5 5 5 5 6 8 6 4 12 6 9 8 17 18 16 15 14 13 11 11 9 7 10 8 6 7 7 8 3 5 6 7 7 7 7 8 8 7 9 8 9 7
6 4 4 5 7 3 6 5 6 8 11 8 7 8 11 15 15 15 13 12 11 9 9 7 8 8 6 6 7 5 5 5 6 5 5 5 5 7 6 5 5 5 6 8
4 4 3 2 3 3 4 7 7 8 9 10 7 8 11 16 12 14 12 11 9 7 6 7 7 6 6 5 5 4 4 6 6 6 5 5 4 5 5 5 4 5 5 2
2 3 4 5 3 4 6 5 8 10 8 8 11 7 6 14 13 13 10 8 9 9 7 7 7 7 4 4 5 4 4 4 4 4 4 4 4 5 4 4 6 3 6 11
Wind_Direction
203 99 226 221 181 219 269 355 94 76 103 65 316 145 175 182 194 197 188 159 153 166 159 149 157 155 143 155 153 157 127 144 128 105 109 99 130 138 56 137 149 143 134 131
16 210 230 234 266 262 273 151 94 93 144 95 46 83 173 192 236 199 183 158 160 160 156 143 156 155 152 161 152 148 148 153 158 121 133 127 146 170 138 183 220 142 164 156
169 232 211 225 265 283 268 200 184 129 108 101 93 59 292 233 256 185 170 158 174 154 149 148 153 163 155 155 154 157 155 163 142 126 107 72 52 62 78 177 260 235 179 171
218 253 231 231 255 209 270 215 148 146 156 173 191 185 230 263 238 194 176 174 180 169 153 157 159 165 164 162 157 158 158 146 147 141 143 151 158 155 205 206 177 232 194 184
242 221 209 219 233 211 240 239 173 170 87 109 220 104 146 237 218 212 206 203 164 170 158 164 166 168 175 161 164 165 164 146 152 152 158 136 156 181 207 186 189 226 205 194
243 252 170 218 246 230 239 124 64 104 118 96 190 147 190 180 199 212 215 209 165 175 172 159 170 169 172 169 161 164 171 168 161 152 152 173 168 167 165 200 178 187 230 175
293 266 251 221 258 324 144 81 47 20 58 223 176 168 204 198 179 181 209 195 132 65 225 153 157 171 170 173 169 168 171 181 162 160 158 172 185 165 193 194 174 169 174 196
272 312 188 222 186 192 160 146 156 147 172 227 158 234 300 156 133 161 108 89 101 117 123 233 192 173 176 175 170 173 176 180 169 168 171 177 198 176 189 174 183 187 193 206
227 268 315 182 229 135 267 138 193 136 164 77 118 71 37 77 68 67 118 135 233 229 161 215 135 161 182 174 175 177 178 183 177 180 169 182 186 184 198 193 201 184 225 218
193 254 285 313 182 37 143 171 48 13 140 48 286 153 159 132 107 88 82 66 57 12 226 130 125 116 101 99 105 71 150 155 158 183 190 182 190 197 207 178 232 213 203 221
34 106 295 342 167 162 37 67 69 109 125 169 170 55 211 136 118 103 88 66 61 57 54 73 91 101 101 93 84 68 76 95 90 80 59 241 207 197 200 195 218 202 195 193
320 125 300 255 296 149 143 156 109 116 264 109 120 101 112 101 94 99 91 85 66 60 55 66 75 84 102 90 89 86 61 74 71 96 80 351 257 208 209 223 190 194 198 202
308 14 18 349 354 3 21 197 131 119 87 185 118 137 135 121 127 122 114 96 81 67 55 56 56 58 57 100 134 134 161 163 114 57 65 42 12 269 229 227 213 172 210 204
95 80 116 171 228 205 335 315 119 121 114 155 137 141 153 141 135 132 122 118 107 95 83 83 77 71 59 63 67 73 33 168 194 116 55 77 24 12 20 41 0 235 198 209
96 78 14 319 326 277 266 325 216 145 171 129 160 148 159 138 132 129 124 118 109 105 96 87 92 87 86 76 73 69 68 70 114 122 115 81 66 59 26 14 351 335 256 222
19 324 42 342 348 354 20 2 131 141 90 90 130 113 138 138 129 131 126 126 120 114 103 97 87 86 88 98 94 94 79 60 83 96 88 111 90 51 53 24 344 338 6 346
73 97 91 230 327 345 31 337 356 60 120 137 146 149 143 143 141 142 132 119 104 100 99 94 82 82 77 75 84 85 85 85 80 76 58 44 58 53 48 38 337 332 351 343
86 73 73 204 28 29 238 328 11 81 92 111 119 143 144 141 137 129 126 118 113 110 99 87 78 65 49 61 61 45 44 51 50 54 57 42 45 57 50 48 312 341 354 351
75 90 58 112 164 279 2 355 348 29 19 140 131 137 131 118 111 107 116 112 117 112 109 100 86 82 60 54 65 60 42 41 42 39 39 30 27 13 22 22 357 352 349 359
54 73 109 76 102 174 193 266 328 95 103 186 141 142 140 136 128 153 131 122 109 99 97 90 71 64 61 40 64 64 46 37 21 15 23 14 14 21 21 360 338 302 320 297
356 11 110 93 187 307 307 314 46 5 224 193 148 145 146 143 127 130 121 117 115 110 105 88 76 72 58 51 67 56 45 31 353 15 15 5 358 351 352 332 329 320 319 320
116 100 335 53 105 277 321 350 117 206 131 131 123 122 116 121 123 126 118 115 106 104 98 98 91 80 65 66 75 62 46 354 9 14 16 6 2 359 354 348 337 333 337 338
31 178 172 146 209 248 335 86 34 78 103 84 116 127 128 127 125 117 116 109 107 104 99 98 100 90 65 68 77 76 34 37 26 28 15 6 5 7 4 5 3 5 7 8
323 35 83 63 330 27 86 62 72 74 86 103 112 115 118 118 115 117 115 113 106 100 100 100 93 91 77 75 74 80 45 39 43 43 29 10 18 357 353 359 4 8 11 10
211 56 127 32 287 38 60 101 114 96 100 94 84 118 128 118 122 124 121 118 119 114 106 100 104 97 100 92 89 84 71 54 30 20 11 11 10 3 355 4 356 1 14 46
10 176 141 210 253 205 241 177 138 122 127 124 117 96 107 128 133 131 130 131 126 124 119 106 111 113 117 90 82 52 54 70 57 18 353 347 354 351 356 346 336 1 336 336